| time (UTC) | temp F | wind direction | speed knots | gust knots | rain 1hr in | rain 24hr in | rain mn in | humidity % | barometer mb |
| 20260507080114 | 40 | 318 | 7.8 | 8.7 | 0.00 | 0.00 | 0.00 | 40 | 1023.5 |
| 20260507075608 | 40 | 256 | 5.2 | 6.1 | 0.00 | 0.00 | 0.00 | 40 | 1023.4 |
| 20260507075105 | 40 | 263 | 4.3 | 5.2 | 0.00 | 0.00 | 0.00 | 39 | 1023.4 |
| 20260507074602 | 40 | 280 | 6.1 | 7.0 | 0.00 | 0.00 | 0.00 | 39 | 1023.6 |
| 20260507074100 | 40 | 227 | 4.3 | 6.1 | 0.00 | 0.00 | 0.00 | 39 | 1023.6 |
| 20260507073556 | 41 | 248 | 5.2 | 7.0 | 0.00 | 0.00 | 0.00 | 40 | 1023.5 |
| 20260507073052 | 41 | 268 | 6.1 | 7.8 | 0.00 | 0.00 | 0.00 | 39 | 1023.6 |
| 20260507072550 | 41 | 268 | 4.3 | 5.2 | 0.00 | 0.00 | 0.00 | 39 | 1023.5 |
| 20260507072047 | 41 | 240 | 4.3 | 5.2 | 0.00 | 0.00 | 0.00 | 39 | 1023.5 |
| 20260507071545 | 41 | 266 | 4.3 | 5.2 | 0.00 | 0.00 | 0.00 | 39 | 1023.4 |
| 20260507071041 | 42 | 244 | 5.2 | 6.1 | 0.00 | 0.00 | 0.00 | 39 | 1023.5 |
| 20260507070538 | 42 | 289 | 5.2 | 6.1 | 0.00 | 0.00 | 0.00 | 39 | 1023.4 |
| 20260507070035 | 42 | 259 | 5.2 | 6.1 | 0.00 | 0.00 | 0.00 | 39 | 1023.3 |
| 20260507065531 | 42 | 266 | 4.3 | 5.2 | 0.00 | 0.00 | 0.00 | 39 | 1023.5 |
| 20260507065029 | 42 | 260 | 4.3 | 7.0 | 0.00 | 0.00 | 0.00 | 39 | 1023.6 |
| 20260507064527 | 42 | 258 | 4.3 | 5.2 | 0.00 | 0.00 | 0.00 | 40 | 1023.6 |
| 20260507064025 | 42 | 260 | 4.3 | 5.2 | 0.00 | 0.00 | 0.00 | 39 | 1023.4 |
| 20260507063522 | 42 | 268 | 5.2 | 6.1 | 0.00 | 0.00 | 0.00 | 38 | 1023.5 |
| 20260507063019 | 43 | 265 | 5.2 | 6.1 | 0.00 | 0.00 | 0.00 | 38 | 1023.4 |
| 20260507062516 | 44 | 273 | 5.2 | 6.1 | 0.00 | 0.00 | 0.00 | 36 | 1023.3 |
| 20260507062014 | 44 | 270 | 5.2 | 6.1 | 0.00 | 0.00 | 0.00 | 37 | 1023.3 |
| 20260507061511 | 43 | 282 | 4.3 | 6.1 | 0.00 | 0.00 | 0.00 | 37 | 1023.3 |
| 20260507061009 | 44 | 227 | 2.6 | 3.5 | 0.00 | 0.00 | 0.00 | 36 | 1023.3 |
| 20260507060507 | 46 | 279 | 3.5 | 3.5 | 0.00 | 0.00 | 0.00 | 35 | 1023.3 |
| 20260507060003 | 45 | 247 | 5.2 | 6.1 | 0.00 | 0.00 | 0.00 | 34 | 1023.5 |
| 20260507055458 | 44 | 264 | 3.5 | 5.2 | 0.00 | 0.00 | 0.00 | 37 | 1023.3 |
| 20260507054954 | 44 | 223 | 5.2 | 6.1 | 0.00 | 0.00 | 0.00 | 36 | 1023.6 |
| 20260507054450 | 44 | 267 | 4.3 | 5.2 | 0.00 | 0.00 | 0.00 | 37 | 1023.4 |
| 20260507053948 | 45 | 286 | 3.5 | 5.2 | 0.00 | 0.00 | 0.00 | 35 | 1023.4 |
| 20260507053446 | 44 | 202 | 1.7 | 1.7 | 0.00 | 0.00 | 0.00 | 36 | 1023.5 |
| 20260507052944 | 45 | 273 | 3.5 | 5.2 | 0.00 | 0.00 | 0.00 | 36 | 1023.3 |
| 20260507052441 | 48 | 265 | 7.0 | 7.8 | 0.00 | 0.00 | 0.00 | 32 | 1023.5 |
| 20260507051938 | 48 | 303 | 5.2 | 6.1 | 0.00 | 0.00 | 0.00 | 32 | 1023.5 |
| 20260507051436 | 48 | 259 | 5.2 | 7.0 | 0.00 | 0.00 | 0.00 | 32 | 1023.4 |
| 20260507050932 | 49 | 266 | 4.3 | 7.0 | 0.00 | 0.00 | 0.00 | 32 | 1023.3 |
| 20260507050429 | 48 | 233 | 7.8 | 8.7 | 0.00 | 0.00 | 0.00 | 32 | 1023.3 |
| 20260507045926 | 49 | 230 | 8.7 | 11.3 | 0.00 | 0.00 | 0.00 | 32 | 1023.6 |
| 20260507045422 | 49 | 264 | 7.0 | 8.7 | 0.00 | 0.00 | 0.00 | 32 | 1023.3 |
| 20260507044920 | 49 | 264 | 8.7 | 9.6 | 0.00 | 0.00 | 0.00 | 32 | 1023.4 |
| 20260507044416 | 49 | 259 | 7.0 | 7.8 | 0.00 | 0.00 | 0.00 | 32 | 1023.3 |
| 20260507043912 | 49 | 246 | 10.4 | 12.2 | 0.00 | 0.00 | 0.00 | 32 | 1023.3 |
| 20260507043409 | 49 | 244 | 7.8 | 8.7 | 0.00 | 0.00 | 0.00 | 31 | 1023.1 |
| 20260507042905 | 48 | 241 | 6.1 | 7.0 | 0.00 | 0.00 | 0.00 | 32 | 1023.0 |
| 20260507042401 | 48 | 221 | 6.1 | 7.0 | 0.00 | 0.00 | 0.00 | 31 | 1023.0 |
| 20260507041852 | 49 | 259 | 7.8 | 8.7 | 0.00 | 0.00 | 0.00 | 31 | 1022.9 |
| 20260507041349 | 49 | 249 | 7.0 | 8.7 | 0.00 | 0.00 | 0.00 | 31 | 1022.9 |
| 20260507040846 | 50 | 237 | 7.8 | 9.6 | 0.00 | 0.00 | 0.00 | 31 | 1022.7 |
| 20260507040342 | 49 | 274 | 7.0 | 8.7 | 0.00 | 0.00 | 0.00 | 31 | 1022.7 |
| 20260507035838 | 49 | 274 | 6.1 | 7.0 | 0.00 | 0.00 | 0.00 | 31 | 1022.5 |
| 20260507035334 | 49 | 271 | 5.2 | 6.1 | 0.00 | 0.00 | 0.00 | 31 | 1022.7 |
| 20260507034832 | 49 | 239 | 7.0 | 7.8 | 0.00 | 0.00 | 0.00 | 31 | 1022.8 |
| 20260507034328 | 49 | 239 | 5.2 | 6.1 | 0.00 | 0.00 | 0.00 | 30 | 1022.5 |
| 20260507033826 | 50 | 273 | 3.5 | 3.5 | 0.00 | 0.00 | 0.00 | 30 | 1022.4 |
| 20260507033324 | 50 | 244 | 5.2 | 6.1 | 0.00 | 0.00 | 0.00 | 30 | 1022.2 |
| 20260507032821 | 50 | 261 | 6.1 | 7.8 | 0.00 | 0.00 | 0.00 | 30 | 1022.2 |
| 20260507032317 | 50 | 256 | 4.3 | 6.1 | 0.00 | 0.00 | 0.00 | 30 | 1021.9 |
| 20260507031814 | 50 | 269 | 3.5 | 5.2 | 0.00 | 0.00 | 0.00 | 30 | 1021.9 |
| 20260507031311 | 50 | 277 | 5.2 | 6.1 | 0.00 | 0.00 | 0.00 | 30 | 1022.0 |
| 20260507030807 | 50 | 251 | 5.2 | 5.2 | 0.00 | 0.00 | 0.00 | 30 | 1021.8 |
| 20260507030305 | 50 | 273 | 4.3 | 6.1 | 0.00 | 0.00 | 0.00 | 29 | 1021.8 |
| 20260507025801 | 52 | 277 | 5.2 | 7.0 | 0.00 | 0.00 | 0.00 | 27 | 1021.8 |
| 20260507025259 | 52 | 277 | 4.3 | 6.1 | 0.00 | 0.00 | 0.00 | 26 | 1021.4 |
| 20260507024757 | 51 | 247 | 6.1 | 7.8 | 0.00 | 0.00 | 0.00 | 27 | 1021.2 |
| 20260507024254 | 52 | 69 | 4.3 | 6.1 | 0.00 | 0.00 | 0.00 | 26 | 1021.3 |
| 20260507023749 | 51 | 270 | 2.6 | 3.5 | 0.00 | 0.00 | 0.00 | 26 | 1021.3 |
| 20260507023246 | 52 | 268 | 2.6 | 3.5 | 0.00 | 0.00 | 0.00 | 26 | 1021.5 |
| 20260507022743 | 53 | 241 | 5.2 | 7.0 | 0.00 | 0.00 | 0.00 | 25 | 1021.3 |
| 20260507022240 | 53 | 234 | 3.5 | 3.5 | 0.00 | 0.00 | 0.00 | 24 | 1020.9 |
| 20260507021736 | 53 | 256 | 2.6 | 3.5 | 0.00 | 0.00 | 0.00 | 24 | 1020.9 |
| 20260507021231 | 53 | 253 | 4.3 | 6.1 | 0.00 | 0.00 | 0.00 | 24 | 1020.9 |
| 20260507020730 | 54 | 255 | 3.5 | 5.2 | 0.00 | 0.00 | 0.00 | 24 | 1020.7 |
| 20260507020226 | 54 | 192 | 4.3 | 7.0 | 0.00 | 0.00 | 0.00 | 23 | 1020.8 |
| 20260507015724 | 55 | 191 | 2.6 | 3.5 | 0.00 | 0.00 | 0.00 | 23 | 1020.6 |
| 20260507015221 | 56 | 289 | 3.5 | 3.5 | 0.00 | 0.00 | 0.00 | 22 | 1020.7 |
| 20260507014717 | 56 | 216 | 2.6 | 3.5 | 0.00 | 0.00 | 0.00 | 21 | 1020.6 |
| 20260507014214 | 57 | 289 | 2.6 | 5.2 | 0.00 | 0.00 | 0.00 | 22 | 1020.7 |
| 20260507013710 | 57 | 203 | 3.5 | 5.2 | 0.00 | 0.00 | 0.00 | 21 | 1020.4 |
| 20260507013208 | 57 | 253 | 5.2 | 7.0 | 0.00 | 0.00 | 0.00 | 21 | 1020.6 |
| 20260507012705 | 57 | 261 | 6.1 | 7.0 | 0.00 | 0.00 | 0.00 | 20 | 1020.3 |
| 20260507012201 | 58 | 270 | 2.6 | 2.6 | 0.00 | 0.00 | 0.00 | 20 | 1020.4 |
| 20260507011659 | 58 | 13 | 3.5 | 5.2 | 0.00 | 0.00 | 0.00 | 21 | 1020.7 |
| 20260507011155 | 58 | 245 | 4.3 | 6.1 | 0.00 | 0.00 | 0.00 | 21 | 1020.4 |
| 20260507010654 | 58 | 266 | 5.2 | 6.1 | 0.00 | 0.00 | 0.00 | 22 | 1020.2 |
| 20260507010150 | 58 | 246 | 8.7 | 11.3 | 0.00 | 0.00 | 0.00 | 22 | 1020.0 |
| 20260507005648 | 59 | 284 | 6.1 | 6.1 | 0.00 | 0.00 | 0.00 | 21 | 1020.4 |
| 20260507005144 | 59 | 318 | 4.3 | 5.2 | 0.00 | 0.00 | 0.00 | 21 | 1020.2 |
| 20260507004641 | 59 | 164 | 3.5 | 3.5 | 0.00 | 0.00 | 0.00 | 21 | 1020.1 |
| 20260507004139 | 59 | 202 | 3.5 | 6.1 | 0.00 | 0.00 | 0.00 | 21 | 1020.3 |
| 20260507003635 | 59 | 254 | 9.6 | 12.2 | 0.00 | 0.00 | 0.00 | 21 | 1020.1 |
| 20260507003130 | 59 | 266 | 5.2 | 7.8 | 0.00 | 0.00 | 0.00 | 22 | 1020.0 |
| 20260507002627 | 60 | 33 | 5.2 | 7.0 | 0.00 | 0.00 | 0.00 | 21 | 1020.0 |
| 20260507002122 | 60 | 189 | 3.5 | 5.2 | 0.00 | 0.00 | 0.00 | 20 | 1020.0 |
| 20260507001619 | 60 | 248 | 5.2 | 6.1 | 0.00 | 0.00 | 0.00 | 20 | 1019.7 |
| 20260507001117 | 61 | 196 | 4.3 | 5.2 | 0.00 | 0.00 | 0.00 | 20 | 1020.0 |
| 20260507000613 | 61 | 272 | 6.1 | 7.0 | 0.00 | 0.00 | 0.00 | 20 | 1019.7 |
| 20260507000108 | 61 | 284 | 2.6 | 5.2 | 0.00 | 0.00 | 0.00 | 19 | 1020.0 |
| 20260506235606 | 61 | 288 | 7.8 | 8.7 | 0.00 | 0.00 | 0.00 | 20 | 1019.6 |
| 20260506235106 | 62 | 306 | 3.5 | 5.2 | 0.00 | 0.00 | 0.00 | 20 | 1019.6 |
| 20260506234604 | 62 | 296 | 3.5 | 7.0 | 0.00 | 0.00 | 0.00 | 20 | 1019.5 |
| 20260506234101 | 61 | 347 | 5.2 | 6.1 | 0.00 | 0.00 | 0.00 | 20 | 1019.5 |
| 20260506233558 | 62 | 260 | 8.7 | 12.2 | 0.00 | 0.00 | 0.00 | 20 | 1019.6 |
| 20260506233055 | 62 | 342 | 5.2 | 8.7 | 0.00 | 0.00 | 0.00 | 19 | 1019.5 |
| 20260506232551 | 62 | 17 | 4.3 | 5.2 | 0.00 | 0.00 | 0.00 | 19 | 1019.5 |
| 20260506232046 | 62 | 66 | 2.6 | 3.5 | 0.00 | 0.00 | 0.00 | 17 | 1019.6 |
| 20260506231544 | 63 | 183 | 0.9 | 0.9 | 0.00 | 0.00 | 0.00 | 19 | 1019.1 |
| 20260506231041 | 62 | 204 | 0.9 | 1.7 | 0.00 | 0.00 | 0.00 | 18 | 1019.2 |
| 20260506230538 | 61 | 359 | 5.2 | 7.0 | 0.00 | 0.00 | 0.00 | 18 | 1019.3 |
| 20260506230035 | 61 | 23 | 5.2 | 6.1 | 0.00 | 0.00 | 0.00 | 19 | 1018.7 |
| 20260506225532 | 62 | 263 | 4.3 | 6.1 | 0.00 | 0.00 | 0.00 | 22 | 1019.1 |
| 20260506225028 | 62 | 262 | 9.6 | 11.3 | 0.00 | 0.00 | 0.00 | 21 | 1019.3 |
| 20260506224525 | 62 | 280 | 3.5 | 6.1 | 0.00 | 0.00 | 0.00 | 19 | 1019.2 |
| 20260506224022 | 62 | 206 | 7.0 | 7.8 | 0.00 | 0.00 | 0.00 | 20 | 1019.1 |
| 20260506223518 | 62 | 275 | 4.3 | 7.0 | 0.00 | 0.00 | 0.00 | 20 | 1019.2 |
| 20260506223014 | 60 | 178 | 2.6 | 3.5 | 0.00 | 0.00 | 0.00 | 23 | 1019.3 |
| 20260506222511 | 62 | 274 | 5.2 | 6.1 | 0.00 | 0.00 | 0.00 | 20 | 1019.3 |
| 20260506222008 | 61 | 199 | 3.5 | 3.5 | 0.00 | 0.00 | 0.00 | 21 | 1019.1 |
| 20260506221505 | 61 | 296 | 4.3 | 6.1 | 0.00 | 0.00 | 0.00 | 23 | 1019.1 |
| 20260506221003 | 60 | 277 | 7.8 | 8.7 | 0.00 | 0.00 | 0.00 | 22 | 1019.3 |
| 20260506220458 | 60 | 257 | 8.7 | 9.6 | 0.00 | 0.00 | 0.00 | 22 | 1019.1 |
| 20260506215954 | 61 | 303 | 2.6 | 2.6 | 0.00 | 0.00 | 0.00 | 22 | 1019.3 |
| 20260506215451 | 61 | 230 | 6.1 | 7.8 | 0.00 | 0.00 | 0.00 | 23 | 1019.1 |
| 20260506214947 | 61 | 228 | 4.3 | 6.1 | 0.00 | 0.00 | 0.00 | 23 | 1019.2 |
| 20260506214444 | 60 | 299 | 7.8 | 8.7 | 0.00 | 0.00 | 0.00 | 24 | 1019.2 |
| 20260506213942 | 61 | 218 | 0.9 | 0.9 | 0.00 | 0.00 | 0.00 | 22 | 1019.3 |
| 20260506213439 | 61 | 297 | 0.9 | 1.7 | 0.00 | 0.00 | 0.00 | 24 | 1019.2 |
| 20260506212936 | 60 | 249 | 5.2 | 7.0 | 0.00 | 0.00 | 0.00 | 23 | 1019.3 |
| 20260506212432 | 59 | 330 | 7.0 | 8.7 | 0.00 | 0.00 | 0.00 | 24 | 1019.3 |
| 20260506211932 | 60 | 285 | 7.0 | 7.8 | 0.00 | 0.00 | 0.00 | 23 | 1019.5 |
| 20260506211429 | 60 | 14 | 4.3 | 6.1 | 0.00 | 0.00 | 0.00 | 25 | 1019.2 |
| 20260506210926 | 60 | 176 | 0.0 | 0.9 | 0.00 | 0.00 | 0.00 | 26 | 1019.5 |
| 20260506210422 | 59 | 263 | 7.0 | 7.8 | 0.00 | 0.00 | 0.00 | 25 | 1019.2 |
| 20260506205920 | 60 | 229 | 4.3 | 6.1 | 0.00 | 0.00 | 0.00 | 25 | 1019.3 |
| 20260506205415 | 58 | 315 | 6.1 | 7.0 | 0.00 | 0.00 | 0.00 | 25 | 1019.5 |
| 20260506204912 | 58 | 355 | 4.3 | 7.0 | 0.00 | 0.00 | 0.00 | 27 | 1019.3 |
| 20260506204410 | 58 | 261 | 6.1 | 7.8 | 0.00 | 0.00 | 0.00 | 28 | 1019.1 |
| 20260506203907 | 58 | 303 | 6.1 | 7.8 | 0.00 | 0.00 | 0.00 | 26 | 1019.1 |
| 20260506203404 | 58 | 289 | 7.0 | 11.3 | 0.00 | 0.00 | 0.00 | 26 | 1019.0 |
| 20260506202901 | 58 | 301 | 5.2 | 8.7 | 0.00 | 0.00 | 0.00 | 27 | 1019.5 |
| 20260506202358 | 58 | 194 | 7.0 | 7.8 | 0.00 | 0.00 | 0.00 | 27 | 1019.3 |
| 20260506201854 | 59 | 315 | 10.4 | 13.9 | 0.00 | 0.00 | 0.00 | 28 | 1019.0 |
| 20260506201352 | 59 | 241 | 7.8 | 8.7 | 0.00 | 0.00 | 0.00 | 29 | 1019.5 |
| 20260506200848 | 58 | 272 | 9.6 | 12.2 | 0.00 | 0.00 | 0.00 | 30 | 1019.0 |
| 20260506200344 | 58 | 229 | 14.8 | 18.2 | 0.00 | 0.00 | 0.00 | 31 | 1019.1 |
| 20260506195841 | 57 | 296 | 10.4 | 12.2 | 0.00 | 0.00 | 0.00 | 34 | 1019.2 |
| 20260506195338 | 57 | 295 | 11.3 | 13.0 | 0.00 | 0.00 | 0.00 | 33 | 1019.1 |
| 20260506194835 | 59 | 261 | 13.0 | 16.5 | 0.00 | 0.00 | 0.00 | 32 | 1018.7 |
| 20260506194332 | 58 | 257 | 11.3 | 14.8 | 0.00 | 0.00 | 0.00 | 35 | 1019.1 |
| 20260506193829 | 58 | 283 | 13.9 | 19.1 | 0.00 | 0.00 | 0.00 | 34 | 1018.9 |
| 20260506193326 | 57 | 263 | 13.9 | 15.6 | 0.00 | 0.00 | 0.00 | 35 | 1019.2 |
| 20260506192822 | 56 | 246 | 12.2 | 13.9 | 0.00 | 0.00 | 0.00 | 36 | 1019.1 |
| 20260506192319 | 56 | 266 | 15.6 | 16.5 | 0.00 | 0.00 | 0.00 | 36 | 1018.9 |
| 20260506191816 | 57 | 273 | 11.3 | 13.0 | 0.00 | 0.00 | 0.00 | 35 | 1019.0 |
| 20260506191312 | 57 | 262 | 17.4 | 20.0 | 0.00 | 0.00 | 0.00 | 35 | 1019.0 |
| 20260506190809 | 56 | 260 | 10.4 | 13.0 | 0.00 | 0.00 | 0.00 | 37 | 1018.6 |
| 20260506190306 | 55 | 282 | 13.0 | 14.8 | 0.00 | 0.00 | 0.00 | 36 | 1019.0 |
| 20260506185803 | 55 | 272 | 14.8 | 15.6 | 0.00 | 0.00 | 0.00 | 37 | 1019.1 |
| 20260506185259 | 55 | 274 | 16.5 | 19.1 | 0.00 | 0.00 | 0.00 | 37 | 1019.1 |
| 20260506184757 | 56 | 281 | 14.8 | 18.2 | 0.00 | 0.00 | 0.00 | 34 | 1019.1 |
| 20260506184254 | 55 | 253 | 12.2 | 13.0 | 0.00 | 0.00 | 0.00 | 36 | 1019.3 |
| 20260506183751 | 55 | 258 | 13.0 | 14.8 | 0.00 | 0.00 | 0.00 | 36 | 1019.2 |
| 20260506183251 | 54 | 281 | 11.3 | 13.9 | 0.00 | 0.00 | 0.00 | 36 | 1019.0 |
| 20260506182749 | 54 | 281 | 7.0 | 8.7 | 0.00 | 0.00 | 0.00 | 36 | 1019.0 |
| 20260506182246 | 54 | 274 | 12.2 | 13.9 | 0.00 | 0.00 | 0.00 | 37 | 1019.1 |
| 20260506181744 | 55 | 254 | 8.7 | 9.6 | 0.00 | 0.00 | 0.00 | 34 | 1019.2 |
| 20260506181241 | 56 | 251 | 7.8 | 7.8 | 0.00 | 0.00 | 0.00 | 33 | 1019.0 |
| 20260506180738 | 56 | 291 | 4.3 | 5.2 | 0.00 | 0.00 | 0.00 | 34 | 1019.2 |
| 20260506180234 | 54 | 269 | 11.3 | 13.0 | 0.00 | 0.00 | 0.00 | 35 | 1019.3 |
| 20260506175730 | 53 | 253 | 7.8 | 11.3 | 0.00 | 0.00 | 0.00 | 37 | 1019.1 |
| 20260506175227 | 54 | 258 | 9.6 | 11.3 | 0.00 | 0.00 | 0.00 | 37 | 1018.7 |
| 20260506174725 | 53 | 285 | 13.9 | 15.6 | 0.00 | 0.00 | 0.00 | 38 | 1019.2 |
| 20260506174221 | 54 | 239 | 8.7 | 13.0 | 0.00 | 0.00 | 0.00 | 39 | 1018.9 |
| 20260506173719 | 53 | 302 | 7.0 | 7.8 | 0.00 | 0.00 | 0.00 | 39 | 1019.0 |
| 20260506173216 | 52 | 271 | 10.4 | 13.0 | 0.00 | 0.00 | 0.00 | 42 | 1018.7 |
| 20260506172713 | 53 | 245 | 7.8 | 9.6 | 0.00 | 0.00 | 0.00 | 42 | 1018.7 |
| 20260506172209 | 51 | 297 | 12.2 | 13.9 | 0.00 | 0.00 | 0.00 | 44 | 1018.5 |
| 20260506171707 | 52 | 255 | 13.0 | 14.8 | 0.00 | 0.00 | 0.00 | 44 | 1018.7 |
| 20260506171204 | 51 | 276 | 11.3 | 15.6 | 0.00 | 0.00 | 0.00 | 49 | 1018.5 |
| 20260506170702 | 51 | 305 | 12.2 | 13.9 | 0.00 | 0.00 | 0.00 | 49 | 1018.6 |
| 20260506170158 | 49 | 276 | 10.4 | 12.2 | 0.00 | 0.00 | 0.00 | 53 | 1018.1 |
| 20260506165657 | 49 | 279 | 14.8 | 19.1 | 0.00 | 0.00 | 0.00 | 54 | 1018.0 |
| 20260506165153 | 50 | 238 | 12.2 | 13.9 | 0.00 | 0.00 | 0.00 | 53 | 1018.0 |
| 20260506164650 | 51 | 277 | 13.0 | 15.6 | 0.00 | 0.00 | 0.00 | 52 | 1018.1 |
| 20260506164148 | 50 | 314 | 9.6 | 13.0 | 0.00 | 0.00 | 0.00 | 55 | 1018.0 |
| 20260506163644 | 49 | 277 | 8.7 | 11.3 | 0.00 | 0.00 | 0.00 | 60 | 1018.4 |
| 20260506163139 | 47 | 269 | 12.2 | 14.8 | 0.00 | 0.00 | 0.00 | 64 | 1018.2 |
| 20260506162635 | 46 | 262 | 8.7 | 9.6 | 0.00 | 0.00 | 0.00 | 69 | 1017.9 |
| 20260506162133 | 46 | 271 | 10.4 | 12.2 | 0.00 | 0.00 | 0.00 | 65 | 1018.0 |
| 20260506161630 | 46 | 242 | 6.1 | 7.8 | 0.00 | 0.00 | 0.00 | 64 | 1018.0 |
| 20260506161127 | 48 | 299 | 13.0 | 16.5 | 0.00 | 0.00 | 0.00 | 58 | 1017.6 |
| 20260506160625 | 50 | 303 | 12.2 | 16.5 | 0.00 | 0.00 | 0.00 | 54 | 1017.5 |
| 20260506160121 | 50 | 250 | 7.0 | 8.7 | 0.00 | 0.00 | 0.00 | 56 | 1017.4 |
| 20260506155620 | 51 | 229 | 5.2 | 7.0 | 0.00 | 0.00 | 0.00 | 56 | 1017.3 |
| 20260506155116 | 48 | 259 | 14.8 | 20.0 | 0.00 | 0.00 | 0.00 | 56 | 1017.0 |
| 20260506153218 | 48 | 261 | 8.7 | 11.3 | 0.00 | 0.00 | 0.00 | 56 | 1017.0 |
| 20260506152715 | 50 | 269 | 12.2 | 13.9 | 0.00 | 0.00 | 0.00 | 54 | 1016.8 |
| 20260506152212 | 49 | 254 | 8.7 | 9.6 | 0.00 | 0.00 | 0.00 | 55 | 1016.5 |
| 20260506151712 | 49 | 222 | 9.6 | 11.3 | 0.00 | 0.00 | 0.00 | 57 | 1016.8 |
| 20260506151208 | 49 | 314 | 7.8 | 9.6 | 0.00 | 0.00 | 0.00 | 58 | 1016.8 |
| 20260506150704 | 49 | 296 | 9.6 | 11.3 | 0.00 | 0.00 | 0.00 | 58 | 1016.8 |
| 20260506150201 | 48 | 269 | 10.4 | 13.0 | 0.00 | 0.00 | 0.00 | 59 | 1016.6 |
| 20260506145658 | 48 | 271 | 6.1 | 7.0 | 0.00 | 0.00 | 0.00 | 59 | 1016.6 |
| 20260506145154 | 48 | 262 | 7.8 | 8.7 | 0.00 | 0.00 | 0.00 | 59 | 1016.4 |
| 20260506144652 | 48 | 281 | 6.1 | 8.7 | 0.00 | 0.00 | 0.00 | 59 | 1016.6 |
| 20260506144149 | 49 | 278 | 3.5 | 6.1 | 0.00 | 0.00 | 0.00 | 58 | 1016.4 |
| 20260506143646 | 48 | 258 | 7.8 | 8.7 | 0.00 | 0.00 | 0.00 | 58 | 1016.9 |
| 20260506143144 | 47 | 233 | 3.5 | 3.5 | 0.00 | 0.00 | 0.00 | 60 | 1016.5 |
| 20260506142643 | 46 | 240 | 5.2 | 6.1 | 0.00 | 0.00 | 0.00 | 60 | 1016.4 |
| 20260506142140 | 46 | 265 | 5.2 | 6.1 | 0.00 | 0.00 | 0.00 | 61 | 1016.4 |
| 20260506141637 | 44 | 288 | 5.2 | 5.2 | 0.00 | 0.00 | 0.00 | 64 | 1016.3 |
| 20260506141136 | 44 | 197 | 3.5 | 5.2 | 0.00 | 0.00 | 0.00 | 64 | 1016.2 |
| 20260506140633 | 44 | 281 | 5.2 | 7.0 | 0.00 | 0.00 | 0.00 | 65 | 1016.5 |
| 20260506140130 | 44 | 183 | 1.7 | 2.6 | 0.00 | 0.00 | 0.00 | 66 | 1016.3 |
| 20260506135627 | 44 | 242 | 4.3 | 6.1 | 0.00 | 0.00 | 0.00 | 66 | 1016.3 |
| 20260506135123 | 44 | 278 | 5.2 | 6.1 | 0.00 | 0.00 | 0.00 | 66 | 1016.5 |
| 20260506134620 | 44 | 280 | 5.2 | 7.0 | 0.00 | 0.00 | 0.00 | 66 | 1016.3 |
| 20260506134115 | 44 | 257 | 3.5 | 6.1 | 0.00 | 0.00 | 0.00 | 66 | 1016.3 |
| 20260506133613 | 44 | 279 | 2.6 | 3.5 | 0.00 | 0.00 | 0.00 | 66 | 1015.9 |
| 20260506133110 | 44 | 194 | 1.7 | 2.6 | 0.00 | 0.00 | 0.00 | 66 | 1016.0 |
| 20260506132608 | 43 | 235 | 1.7 | 1.7 | 0.00 | 0.00 | 0.00 | 66 | 1016.0 |
| 20260506132104 | 43 | 198 | 1.7 | 2.6 | 0.00 | 0.00 | 0.00 | 66 | 1015.8 |
| 20260506131601 | 43 | 266 | 1.7 | 2.6 | 0.00 | 0.00 | 0.00 | 66 | 1015.8 |
| 20260506131057 | 43 | 316 | 4.3 | 6.1 | 0.00 | 0.00 | 0.00 | 67 | 1015.4 |
| 20260506130554 | 42 | 275 | 6.1 | 7.0 | 0.00 | 0.00 | 0.00 | 67 | 1015.0 |
| 20260506130052 | 43 | 261 | 6.1 | 7.8 | 0.00 | 0.00 | 0.00 | 67 | 1015.2 |
| 20260506125550 | 43 | 258 | 7.0 | 8.7 | 0.00 | 0.00 | 0.00 | 67 | 1015.7 |
| 20260506125048 | 43 | 266 | 6.1 | 7.8 | 0.00 | 0.00 | 0.00 | 68 | 1015.4 |
| 20260506124545 | 42 | 259 | 6.1 | 7.0 | 0.00 | 0.00 | 0.00 | 69 | 1015.4 |
| 20260506124043 | 42 | 266 | 4.3 | 6.1 | 0.00 | 0.00 | 0.00 | 69 | 1014.9 |
| 20260506123540 | 42 | 224 | 5.2 | 6.1 | 0.00 | 0.00 | 0.00 | 69 | 1014.9 |
| 20260506123039 | 43 | 310 | 2.6 | 5.2 | 0.00 | 0.00 | 0.00 | 68 | 1014.9 |
| 20260506122535 | 43 | 239 | 4.3 | 6.1 | 0.00 | 0.00 | 0.00 | 68 | 1014.9 |
| 20260506122033 | 42 | 213 | 2.6 | 3.5 | 0.00 | 0.00 | 0.00 | 63 | 1015.0 |
| 20260506121531 | 42 | 273 | 6.1 | 9.6 | 0.00 | 0.00 | 0.00 | 62 | 1014.9 |
| 20260506121026 | 42 | 200 | 2.6 | 3.5 | 0.00 | 0.00 | 0.00 | 60 | 1014.6 |
| 20260506120525 | 42 | 236 | 6.1 | 7.0 | 0.00 | 0.00 | 0.00 | 59 | 1014.6 |
| 20260506120022 | 42 | 300 | 6.1 | 7.0 | 0.00 | 0.00 | 0.00 | 58 | 1014.6 |
| 20260506115520 | 43 | 224 | 2.6 | 2.6 | 0.00 | 0.00 | 0.00 | 56 | 1014.6 |
| 20260506115018 | 43 | 252 | 6.1 | 7.0 | 0.00 | 0.00 | 0.00 | 56 | 1014.6 |
| 20260506114515 | 43 | 261 | 7.8 | 9.6 | 0.00 | 0.00 | 0.00 | 56 | 1014.3 |
| 20260506114014 | 43 | 259 | 9.6 | 12.2 | 0.00 | 0.00 | 0.00 | 54 | 1014.4 |
| 20260506113511 | 43 | 298 | 11.3 | 13.0 | 0.00 | 0.00 | 0.00 | 54 | 1014.2 |
| 20260506113008 | 43 | 233 | 7.8 | 9.6 | 0.00 | 0.00 | 0.00 | 54 | 1013.8 |
| 20260506112504 | 43 | 275 | 7.8 | 11.3 | 0.00 | 0.00 | 0.00 | 54 | 1013.6 |
| 20260506112002 | 43 | 253 | 4.3 | 6.1 | 0.00 | 0.00 | 0.00 | 53 | 1013.8 |
| 20260506111500 | 43 | 258 | 7.8 | 9.6 | 0.00 | 0.00 | 0.00 | 53 | 1013.7 |
| 20260506110956 | 43 | 276 | 8.7 | 9.6 | 0.00 | 0.00 | 0.00 | 53 | 1013.6 |
| 20260506110454 | 43 | 287 | 7.8 | 8.7 | 0.00 | 0.00 | 0.00 | 54 | 1013.5 |
| 20260506105951 | 42 | 232 | 6.1 | 7.8 | 0.00 | 0.00 | 0.00 | 54 | 1013.2 |
| 20260506105447 | 42 | 295 | 7.0 | 7.8 | 0.00 | 0.00 | 0.00 | 55 | 1013.2 |
| 20260506104945 | 42 | 280 | 6.1 | 7.8 | 0.00 | 0.00 | 0.00 | 55 | 1013.0 |
| 20260506104443 | 42 | 287 | 6.1 | 7.8 | 0.00 | 0.00 | 0.00 | 55 | 1013.3 |
| 20260506103941 | 42 | 269 | 6.1 | 7.8 | 0.00 | 0.00 | 0.00 | 54 | 1013.2 |
| 20260506103437 | 42 | 232 | 5.2 | 6.1 | 0.00 | 0.00 | 0.00 | 54 | 1013.2 |
| 20260506102934 | 41 | 278 | 6.1 | 7.0 | 0.00 | 0.00 | 0.00 | 55 | 1013.5 |
| 20260506102432 | 41 | 265 | 11.3 | 13.0 | 0.00 | 0.00 | 0.00 | 55 | 1013.5 |
| 20260506101929 | 41 | 281 | 5.2 | 6.1 | 0.00 | 0.00 | 0.00 | 56 | 1013.5 |
| 20260506101426 | 40 | 283 | 6.1 | 7.0 | 0.00 | 0.00 | 0.00 | 56 | 1013.2 |
| 20260506100923 | 40 | 233 | 6.1 | 7.8 | 0.00 | 0.00 | 0.00 | 57 | 1013.3 |
| 20260506100421 | 40 | 247 | 6.1 | 7.0 | 0.00 | 0.00 | 0.00 | 56 | 1013.2 |
| 20260506095919 | 40 | 261 | 7.0 | 7.8 | 0.00 | 0.00 | 0.00 | 57 | 1013.1 |
| 20260506095417 | 39 | 253 | 6.1 | 7.0 | 0.00 | 0.00 | 0.00 | 57 | 1013.2 |
| 20260506094913 | 39 | 265 | 7.0 | 8.7 | 0.00 | 0.00 | 0.00 | 57 | 1013.2 |
| 20260506094412 | 39 | 258 | 7.8 | 8.7 | 0.00 | 0.00 | 0.00 | 58 | 1013.5 |
| 20260506093909 | 39 | 273 | 7.0 | 7.8 | 0.00 | 0.00 | 0.00 | 58 | 1013.1 |
| 20260506093407 | 39 | 254 | 5.2 | 6.1 | 0.00 | 0.00 | 0.00 | 57 | 1013.1 |
| 20260506092904 | 39 | 259 | 7.0 | 7.8 | 0.00 | 0.00 | 0.00 | 57 | 1013.5 |
| 20260506092402 | 40 | 256 | 7.8 | 8.7 | 0.00 | 0.00 | 0.00 | 57 | 1013.5 |
| 20260506091858 | 40 | 272 | 9.6 | 11.3 | 0.00 | 0.00 | 0.00 | 56 | 1013.3 |
| 20260506091357 | 40 | 274 | 11.3 | 13.0 | 0.00 | 0.00 | 0.00 | 56 | 1013.2 |
| 20260506090853 | 40 | 262 | 8.7 | 9.6 | 0.00 | 0.00 | 0.00 | 56 | 1013.1 |
| 20260506090351 | 40 | 270 | 7.8 | 8.7 | 0.00 | 0.00 | 0.00 | 56 | 1012.8 |
| 20260506085848 | 40 | 268 | 6.1 | 7.0 | 0.00 | 0.00 | 0.00 | 55 | 1013.0 |
| 20260506085344 | 40 | 286 | 5.2 | 6.1 | 0.00 | 0.00 | 0.00 | 57 | 1013.3 |
| 20260506084841 | 40 | 244 | 5.2 | 7.0 | 0.00 | 0.00 | 0.00 | 58 | 1013.2 |
| 20260506084338 | 40 | 259 | 3.5 | 5.2 | 0.00 | 0.00 | 0.00 | 58 | 1013.7 |
| 20260506083834 | 40 | 239 | 4.3 | 6.1 | 0.00 | 0.00 | 0.00 | 57 | 1013.3 |
| 20260506083331 | 39 | 264 | 5.2 | 6.1 | 0.00 | 0.00 | 0.00 | 59 | 1013.2 |
| 20260506082829 | 40 | 237 | 3.5 | 3.5 | 0.00 | 0.00 | 0.00 | 59 | 1013.3 |
| 20260506082325 | 40 | 256 | 5.2 | 6.1 | 0.00 | 0.00 | 0.00 | 59 | 1013.1 |
| 20260506081821 | 40 | 265 | 4.3 | 6.1 | 0.00 | 0.00 | 0.00 | 58 | 1013.0 |
| 20260506081320 | 40 | 230 | 4.3 | 6.1 | 0.00 | 0.00 | 0.00 | 57 | 1013.3 |
| 20260506080817 | 40 | 266 | 6.1 | 7.0 | 0.00 | 0.00 | 0.00 | 58 | 1013.2 |